Flag for Germany Weather past 2 weeks in Krefeld, North Rhine-Westphalia, Germany

Now
61 °F

Scattered clouds.


Feels Like: 61 °F
Forecast: 53 / 76 °F
Wind: 2 mph from North

Location: Monchengladbach Airport

Current Time: Jul 31, 2015 at 12:02:07 PM

Latest Report: Jul 31, 2015 at 11:20 AM


Visibility: N/A

Pressure: 30.15 "Hg

Humidity: 55%

Dew point: 45 °F

Location of KrefeldLocation

Historic Weather in Krefeld — Graph

°F

Krefeld temperature yesterday

Maximum temperature yesterday: 66 °F (at 1:50 PM)
Minimum temperature yesterday: 55 °F (at 7:50 AM)
Average temperature yesterday: 61 °F

Past Weeks' High & Low Weather Summary

 TemperatureHumidityPressure
High90 °F (Jul 17, 4:50 PM)100% (Jul 16, 10:20 AM)30.15 "Hg (Jul 16, 10:20 AM)
Low54 °F (Jul 31, 8:20 AM)29% (Jul 17, 4:50 PM)29.50 "Hg (Jul 25, 7:50 AM)
Average68 °F67%29.88 "Hg
* Reported Jul 16 10:20 AM — Jul 31 10:50 AM, Krefeld, Weather by CustomWeather, © 2015

Note: Actual official high and low records may vary slightly from our data, if they occured in-between our weather recording intervals... More about our weather records

Advertising

Krefeld weather history for previous 24 hours

 ConditionsComfort  
Time TempWeatherWind HumidityBarometerVisibility
10:50 AM
Fri, Jul 31
59 °FSunny.2 mph63%30.15 "HgN/A
10:20 AM59 °FScattered clouds.1 mph63%30.15 "HgN/A
9:50 AM59 °FSunny.6 mph63%30.15 "Hg10 mi
9:20 AM57 °FSunny.2 mph67%30.15 "Hg10 mi
8:50 AM55 °FSunny.1 mph77%30.15 "Hg10 mi
8:20 AM54 °FSunny.2 mph94%30.15 "Hg10 mi
7:50 AM55 °FSunny.No wind100%30.15 "Hg10 mi
8:20 PM
Thu, Jul 30
59 °FClear.3 mph77%30.07 "Hg10 mi
7:50 PM59 °FPassing clouds.6 mph77%30.04 "HgN/A
7:20 PM59 °FScattered showers. Passing clouds.8 mph72%30.04 "HgN/A
6:50 PM59 °FScattered showers. Passing clouds.7 mph72%30.04 "HgN/A
6:20 PM59 °FScattered showers. Passing clouds.10 mph72%30.04 "HgN/A
5:50 PM63 °FPassing clouds.10 mph59%30.04 "HgN/A
5:20 PM63 °FPassing clouds.5 mph64%30.01 "HgN/A
4:50 PM63 °FPassing clouds.5 mph59%30.01 "HgN/A
4:20 PM63 °FPassing clouds.8 mph56%30.01 "HgN/A
3:50 PM63 °FClear.13 mph56%30.01 "Hg10 mi
3:20 PM63 °FPassing clouds.12 mph59%30.01 "HgN/A
2:50 PM61 °FPassing clouds.18 mph68%30.01 "HgN/A
2:20 PM59 °FPassing clouds.20 mph72%30.01 "HgN/A
1:50 PM66 °FPassing clouds.8 mph52%29.98 "HgN/A
1:20 PM64 °FPassing clouds.8 mph49%29.98 "HgN/A
12:50 PM64 °FPassing clouds.8 mph56%29.98 "HgN/A
12:20 PM63 °FScattered clouds.8 mph59%29.98 "HgN/A
Weather by CustomWeather, © 2015

See weather overviewHow to use our weather pages